Baku, Azerbaijan

3:16 PM +04 on February 21, 2018 (GMT +0400)
Bina

Weather History for UBBB - February, 2018

Change the Weather History Date:

Tuesday, February 6, 2018

  Actual Average Record
Temperature  
Mean Temperature 43 °F -  
Max Temperature 44 °F - - ()
Min Temperature 41 °F - - ()
Degree Days  
Heating Degree Days 22    
Moisture  
Dew Point 41 °F    
Average Humidity 88    
Maximum Humidity 100    
Minimum Humidity 75    
Precipitation  
Precipitation 0.00 in - - ()
Sea Level Pressure  
Sea Level Pressure 30.28 in    
Wind  
Wind Speed 21 mph ()    
Max Wind Speed 29 mph    
Max Gust Speed 40 mph    
Visibility 6.2 miles    
Events      
T = Trace of Precipitation, MM = Missing Value Source: Averaged Metar Reports

Daily Weather History Graph

Daily Weather History Graph

Search for Another Location

Airport or City:

Trip Planner

Search our weather history database for the weather conditions in past years. The results will help you decide how hot, cold, wet, or windy it might be!

Date:

Astronomy

Feb. 06, 2018 Rise Set
Actual Time 7:44 AM +04 6:03 PM +04
Civil Twilight 7:15 AM +04 6:32 PM +04
Nautical Twilight 6:43 AM +04 7:04 PM +04
Astronomical Twilight 6:11 AM +04 7:36 PM +04
Moon No Moon Rise 11:13 AM +04 (2/6)
Length of Visible Light 11h 16m
Length of Day
10h 19m
Waning Gibbous, 63% of the Moon is Illuminated
Feb 6
Waning Gibbous
Feb 7
Last Quarter
Feb 16
New
Feb 23
First Quarter
Mar 2
Full

Hourly Weather History & Observations

Time (+04) Temp. Windchill Dew Point Humidity Pressure Visibility Wind Dir Wind Speed Gust Speed Precip Events Conditions
12:00 AM 44.6 °F 35.1 °F 42.8 °F 93% 30.12 in 6.2 mi NNW 27.6 mph 39.1 mph N/A   Overcast
12:30 AM 44.6 °F 35.1 °F 42.8 °F 93% 30.12 in 6.2 mi NNW 27.6 mph 39.1 mph N/A   Overcast
1:00 AM 44 °F - 42 °F 88% 30.14 in 6 mi West 24.6 mph - -   Overcast
1:00 AM 44.6 °F 35.1 °F 42.8 °F 93% 30.12 in 6.2 mi NNW 27.6 mph 39.1 mph N/A   Mostly Cloudy
1:30 AM 44.6 °F 35.9 °F 42.8 °F 93% 30.12 in 6.2 mi NNW 23.0 mph 34.5 mph N/A   Mostly Cloudy
2:00 AM 44.6 °F 35.5 °F 42.8 °F 93% 30.15 in 6.2 mi NNW 25.3 mph 36.8 mph N/A   Overcast
2:30 AM 44.6 °F 35.7 °F 42.8 °F 93% 30.15 in 6.2 mi NNW 24.2 mph 35.7 mph N/A   Overcast
3:00 AM 44.6 °F 35.9 °F 42.8 °F 93% 30.15 in 6.2 mi NW 23.0 mph - N/A   Overcast
3:30 AM 44.6 °F 35.9 °F 41.0 °F 87% 30.15 in 6.2 mi NW 23.0 mph - N/A   Overcast
4:00 AM 44 °F - 40 °F 82% 30.17 in 6 mi WNW 20.1 mph - -   Overcast
4:00 AM 44.6 °F 35.9 °F 41.0 °F 87% 30.15 in 6.2 mi NW 23.0 mph - N/A   Overcast
4:30 AM 44.6 °F 35.9 °F 41.0 °F 87% 30.18 in 6.2 mi NW 23.0 mph - N/A   Overcast
5:00 AM 44.6 °F 35.5 °F 41.0 °F 87% 30.18 in 6.2 mi NNW 25.3 mph - N/A   Overcast
5:30 AM 44.6 °F 35.7 °F 41.0 °F 87% 30.21 in 6.2 mi NW 24.2 mph - N/A   Overcast
6:00 AM 42.8 °F 33.8 °F 41.0 °F 93% 30.21 in 6.2 mi NW 21.9 mph - N/A   Overcast
6:30 AM 42.8 °F 33.3 °F 41.0 °F 93% 30.24 in 6.2 mi NW 24.2 mph - N/A   Overcast
7:00 AM 43 °F - 41 °F 90% 30.25 in 6 mi WNW 15.7 mph - -   Overcast
7:00 AM 42.8 °F 33.8 °F 41.0 °F 93% 30.24 in 6.2 mi NNW 21.9 mph - N/A   Overcast
7:30 AM 42.8 °F 33.5 °F 41.0 °F 93% 30.27 in 6.2 mi NNW 23.0 mph - N/A   Overcast
8:00 AM 42.8 °F 33.3 °F 41.0 °F 93% 30.27 in 6.2 mi NNW 24.2 mph 35.7 mph N/A   Light Drizzle
8:30 AM 42.8 °F 32.5 °F 41.0 °F 93% 30.30 in 6.2 mi NNW 28.8 mph 40.3 mph N/A   Overcast
9:00 AM 42.8 °F 33.8 °F 39.2 °F 87% 30.30 in 6.2 mi NW 21.9 mph 35.7 mph N/A   Overcast
9:30 AM 42.8 °F 32.7 °F 39.2 °F 87% 30.33 in 6.2 mi NW 27.6 mph 39.1 mph N/A   Overcast
10:00 AM 43 °F - 39 °F 81% 30.34 in 6 mi WNW 20.1 mph - -   Overcast
10:00 AM 42.8 °F 33.3 °F 39.2 °F 87% 30.33 in 6.2 mi NNW 24.2 mph 38.0 mph N/A   Overcast
10:30 AM 44.6 °F 35.7 °F 39.2 °F 81% 30.33 in 6.2 mi NW 24.2 mph 35.7 mph N/A   Overcast
11:00 AM 44.6 °F 35.7 °F 39.2 °F 81% 30.33 in 6.2 mi NW 24.2 mph 35.7 mph N/A   Overcast
11:30 AM 44.6 °F 35.5 °F 39.2 °F 81% 30.33 in 6.2 mi NNW 25.3 mph 36.8 mph N/A   Overcast
12:00 PM 44.6 °F 36.1 °F 39.2 °F 81% 30.33 in 6.2 mi NNW 21.9 mph 33.4 mph N/A   Overcast
12:30 PM 44.6 °F 35.9 °F 39.2 °F 81% 30.33 in 6.2 mi NNW 23.0 mph 34.5 mph N/A   Overcast
1:00 PM 44 °F - 39 °F 75% 30.33 in 6 mi WNW 26.8 mph - -   Overcast
1:00 PM 44.6 °F 35.9 °F 39.2 °F 81% 30.33 in 6.2 mi NNW 23.0 mph 34.5 mph N/A   Overcast
1:30 PM 44.6 °F 36.1 °F 39.2 °F 81% 30.33 in 6.2 mi NNW 21.9 mph 33.4 mph N/A   Mostly Cloudy
2:00 PM 44.6 °F 35.7 °F 39.2 °F 81% 30.30 in 6.2 mi NNW 24.2 mph - N/A   Mostly Cloudy
2:30 PM 44.6 °F 35.1 °F 39.2 °F 81% 30.30 in 6.2 mi NNW 27.6 mph - N/A   Mostly Cloudy
3:00 PM 44.6 °F 35.3 °F 39.2 °F 81% 30.30 in 6.2 mi NNW 26.5 mph - N/A   Mostly Cloudy
3:30 PM 44.6 °F 35.5 °F 39.2 °F 81% 30.30 in 6.2 mi NNW 25.3 mph - N/A   Mostly Cloudy
4:00 PM 44 °F - 39 °F 78% 30.31 in 6 mi NW 20.1 mph - -   Overcast
4:00 PM 44.6 °F 35.9 °F 39.2 °F 81% 30.30 in 6.2 mi NNW 23.0 mph - N/A   Overcast
4:30 PM 44.6 °F 36.6 °F 41.0 °F 87% 30.30 in 6.2 mi NNW 19.6 mph - N/A   Mostly Cloudy
5:00 PM 42.8 °F 34.3 °F 41.0 °F 93% 30.30 in 6.2 mi NNW 19.6 mph - N/A   Mostly Cloudy
5:30 PM 42.8 °F 34.5 °F 39.2 °F 87% 30.33 in 6.2 mi NNW 18.4 mph - N/A   Mostly Cloudy
6:00 PM 42.8 °F 35.1 °F 39.2 °F 87% 30.33 in 6.2 mi NNW 16.1 mph - N/A   Mostly Cloudy
6:30 PM 42.8 °F 35.1 °F 39.2 °F 87% 30.33 in 6.2 mi NNW 16.1 mph - N/A   Mostly Cloudy
7:00 PM 43 °F - 40 °F 83% 30.35 in 6 mi WNW 17.9 mph - -   Overcast
7:00 PM 42.8 °F 34.8 °F 41.0 °F 93% 30.36 in 6.2 mi NNW 17.3 mph - N/A   Mostly Cloudy
7:30 PM 42.8 °F 34.5 °F 41.0 °F 93% 30.36 in 6.2 mi NNW 18.4 mph - N/A   Mostly Cloudy
8:00 PM 42.8 °F 34.8 °F 41.0 °F 93% 30.36 in 6.2 mi NNW 17.3 mph - N/A   Scattered Clouds
8:30 PM 42.8 °F 34.8 °F 41.0 °F 93% 30.36 in 6.2 mi NNW 17.3 mph - N/A   Mostly Cloudy
9:00 PM 42.8 °F 35.1 °F 41.0 °F 93% 30.36 in 6.2 mi NNW 16.1 mph - N/A   Mostly Cloudy
9:30 PM 42.8 °F 35.1 °F 41.0 °F 93% 30.36 in 6.2 mi NNW 16.1 mph - N/A   Mostly Cloudy
10:00 PM 42 °F - 40 °F 88% 30.37 in 6 mi WNW 17.9 mph - -   Overcast
10:00 PM 42.8 °F 34.8 °F 41.0 °F 93% 30.36 in 6.2 mi NNW 17.3 mph - N/A   Overcast
10:30 PM 42.8 °F 35.1 °F 41.0 °F 93% 30.36 in 6.2 mi NNW 16.1 mph - N/A   Overcast
11:00 PM 42.8 °F 35.4 °F 41.0 °F 93% 30.36 in 6.2 mi NW 15.0 mph - N/A   Overcast
11:30 PM 41.0 °F 32.5 °F 41.0 °F 100% 30.36 in 6.2 mi NNW 17.3 mph - N/A   Mostly Cloudy